#timestamp,LO_Frequency,Hit,StdDev 
1656716415.5,286047002.5,N
1656716435.4,286047000.7,N
1656716455.2,286046999.6,N
1656716475.0,286046999.2,N
1656716475.9,286046999.2,N
1656716495.8,286046996.6,N
1656716515.6,286046997.1,N
1656716535.5,286046999.1,N
1656716555.3,286047000.8,N
1656716575.1,286046997.9,N
1656716595.9,286046997.3,N
1656716615.7,286046999.1,N
1656716635.5,286046996.7,N
1656716655.4,286047002.4,N
1656716675.2,286046998.5,N
1656716695.1,286046996.7,N
1656716696.0,286046996.7,N
1656716715.8,286046997.3,N
1656716735.6,286046997.7,N
1656716755.5,286046995.5,N
1656716775.3,286046996.7,N
1656716795.1,286046998.8,N
1656716815.9,286047002.0,N
1656716835.7,286046998.7,N
1656716855.6,286046999.9,N
1656716875.4,286047004.0,N
1656716895.2,286047001.1,N
1656716915.1,286047000.8,N
1656716916.0,286047000.8,N
1656716935.8,286047000.1,N
1656716955.7,286046996.7,N
1656716975.5,286046997.7,N
1656716995.3,286046997.1,N
1656717015.2,286046999.6,N
1656717035.0,286046999.3,N
1656717035.9,286046999.3,N
1656717055.7,286046997.7,N
1656717075.6,286046997.2,N
1656717095.4,286046998.0,N
1656717115.3,286046999.8,N
1656717135.1,286047000.8,N
1656717155.8,286047002.7,N
1656717175.7,286046999.8,N
1656717195.5,286047001.0,N
1656717215.4,286047001.0,N
1656717235.2,286046999.7,N
1656717255.0,286046998.3,N
1656717255.9,286046998.3,N
1656717275.8,286046998.0,N
1656717295.6,286046995.0,N
1656717315.4,286046994.9,N
1656717335.3,286046997.9,N
1656717355.1,286046998.6,N
1656717375.9,286046999.1,N
1656717395.7,286046996.5,N
1656717415.5,286046998.1,N
1656717435.4,286046999.4,N
1656717455.2,286046999.0,N
1656717475.0,286047000.8,N
1656717475.9,286047000.8,N
1656717495.8,286046999.6,N
1656717515.6,286047001.2,N
1656717535.5,286046996.8,N
1656717555.3,286046996.0,N
1656717575.1,286046995.8,N
1656717595.9,286046994.9,N
1656717615.7,286046996.8,N
1656717635.5,286046999.4,N
1656717655.4,286047002.7,N
1656717675.2,286047000.0,N
1656717695.1,286047001.2,N
1656717696.0,286047001.2,N
1656717715.8,286047000.2,N
1656717735.6,286047000.4,N
1656717755.5,286046999.7,N
1656717775.3,286047001.9,N
1656717795.1,286047002.9,N
1656717815.9,286047003.5,N
1656717835.7,286047004.1,N
1656717855.6,286047003.7,N
1656717875.4,286047004.1,N
1656717895.2,286047004.3,N
1656717915.1,286047001.8,N
1656717916.0,286047001.8,N
1656717935.8,286047003.4,N
1656717955.7,286047004.2,N
1656717975.5,286047001.8,N
1656717995.3,286046999.7,N
1656718015.2,286046998.5,N
1656718035.9,286046997.9,N
1656718055.7,286046998.0,N
1656718075.6,286046998.5,N
1656718095.4,286046997.4,N
1656718115.3,286047000.4,N
1656718135.1,286047002.8,N
1656718136.0,286047002.8,N
1656718155.8,286047001.3,N
1656718175.7,286047002.8,N
1656718195.5,286047002.1,N
1656718215.3,286047004.7,N
1656718235.2,286047002.2,N
1656718255.0,286047000.3,N
1656718255.9,286047000.3,N
1656718275.8,286046999.9,N
1656718295.6,286047001.7,N
1656718315.4,286046999.9,N
1656718335.3,286047002.5,N
1656718355.1,286047001.3,N
1656718375.8,286046998.2,N
1656718395.7,286046997.3,N
1656718415.5,286046997.9,N
1656718435.4,286046997.5,N
1656718455.2,286046997.2,N
1656718475.0,286046995.8,N
1656718475.9,286046995.8,N
1656718495.8,286046995.7,N
1656718515.6,286047001.1,N
1656718535.4,286046998.5,N
1656718555.3,286046998.9,N
1656718575.1,286047000.8,N
1656718595.9,286046998.4,N
1656718615.7,286046995.2,N
1656718635.5,286046999.2,N
1656718655.4,286046996.7,N
1656718675.2,286046997.1,N
1656718695.0,286046996.8,N
1656718696.0,286046996.8,N
1656718715.8,286046997.3,N
1656718735.6,286046997.3,N
1656718755.5,286046997.7,N
1656718775.3,286046996.7,N
1656718795.1,286046997.8,N
1656718815.9,286046995.4,N
1656718835.7,286046998.2,N
1656718855.6,286047000.7,N
1656718875.4,286046998.3,N
1656718895.2,286046998.3,N
1656718915.1,286046997.2,N
1656718916.0,286046997.2,N
1656718935.8,286046996.2,N
1656718955.6,286046994.5,Y
1656718975.5,286046995.4,P
1656718995.3,286046997.7,N
1656719015.2,286046995.2,P
1656719035.9,286046996.0,Y
1656719055.7,286046998.9,P
1656719075.6,286047000.0,N
1656719095.4,286047000.7,N
1656719115.2,286046999.0,N
1656719135.1,286046997.2,N
1656719136.0,286046997.2,N
1656719155.8,286047001.0,N
1656719175.7,286047002.8,N
1656719195.5,286047001.9,N
1656719215.3,286047002.7,N
1656719235.2,286046999.8,N
1656719255.0,286047002.4,N
1656719255.9,286047002.4,N
1656719275.8,286047000.2,N
1656719295.6,286046998.6,N
1656719315.4,286047002.8,N
1656719335.3,286047002.1,N
1656719355.1,286046996.6,N
1656719375.8,286046999.6,N
1656719395.7,286046999.4,N
1656719445.5,286046997.7,E
1656719455.5,286046999.5,N
1656719475.3,286047000.6,P
1656719495.1,286046999.7,N
1656719515.9,286046999.0,N
1656719535.7,286047004.3,Y
1656719555.6,286047002.2,P
1656719575.4,286047005.8,P
1656719595.2,286047002.6,N
1656719615.1,286047002.4,N
1656719616.0,286047002.4,N
1656719635.8,286047001.3,N
1656719655.7,286047003.9,N
1656719675.5,286047003.2,N
1656719695.3,286047004.2,N
1656719715.2,286047003.3,N
1656719735.9,286047003.3,N
1656719755.7,286047007.1,Y
1656719775.6,286047005.5,P
1656719795.4,286047001.3,N
1656719815.3,286047002.2,N
1656719835.1,286047003.8,N
1656719836.0,286047003.8,N
1656719855.8,286047003.3,N
1656719875.7,286047001.3,N
1656719895.5,286047003.9,N
1656719915.3,286047004.1,Y
1656719935.2,286047002.5,P
1656719955.0,286047002.1,P
1656719955.9,286047002.1,P
1656719975.8,286047003.7,Y
1656719995.6,286047001.0,P
